[[{"header":{"parameterUnit":"m.s-1","parameterCategory":1,"la1":30.2991,"la2":30.254,"lo1":-89.0895,"lo2":-89.0444,"dy":0.0017,"dx":0.0017,"nx":28,"ny":28,"refTime":"2024-10-14T03:00:00:Z","depth":0,"parameterNumber":2,"parameterNumberName":"U-component_of_WINDS"},"data":[0,0,0,0,0,0,0,0,0,0,0,0,0,0,0,0,0,0,0,0,0,0,0,0,0,0,0,0,0,0,0,0,0,0,0,0,0,0,0,0,0,0,0,0,0,0,0,0,0,0,0,0,0,0,0,0,0,0,4.8842,4.8843,0,4.8954,4.8955,4.8957,4.8925,4.8923,4.8921,4.8918,4.9033,4.9038,4.9043,0,0,0,0,0,0,0,0,0,0,0,0,0,4.8601,4.8606,4.8842,4.8843,4.8845,4.8954,4.8955,4.8957,4.8925,4.8923,4.892,4.8917,4.9031,4.9037,4.9043,0,0,0,0,0,0,0,0,0,0,0,0,0,4.8709,4.8607,4.8841,4.8842,4.8843,4.8954,4.8955,4.8957,4.8926,4.8923,4.8919,4.8916,4.9029,4.9037,4.9044,4.9161,0,0,4.9068,4.9071,0,0,0,0,0,0,0,0,4.8703,4.8718,4.8841,4.8842,4.8844,4.8922,4.8913,4.9026,4.8927,4.8895,4.8918,4.8914,4.8999,4.9009,4.9037,4.9166,4.9171,4.9069,4.9073,4.9077,4.9079,0,0,0,0,0,0,0,4.8695,4.8713,4.8886,4.8842,4.8844,4.8837,4.8849,4.8934,4.8964,4.8897,4.8895,4.8909,4.8999,4.903,4.904,4.9173,4.9069,4.9075,4.908,4.9083,4.9406,4.941,0,0,0,0,0,0,4.8687,4.8707,4.8883,4.8889,4.8763,4.8844,4.8857,4.89,4.8963,4.897,4.8912,4.8907,4.9018,4.9031,4.9044,4.9186,4.9077,4.9084,4.9088,4.9402,4.9407,4.9411,0,0,0,0,0,0,4.8682,4.8703,4.8878,4.8798,4.8819,4.8852,4.8901,4.8904,4.8935,4.8974,4.898,4.8938,4.9016,4.9033,4.9133,4.9189,4.9088,4.9095,4.9397,4.9403,4.9409,4.947,0,0,0,0,0,0,4.8675,4.8701,4.8745,4.8799,4.8824,4.8965,4.8904,4.8909,4.8949,4.8944,4.9,4.9006,4.9015,4.9121,4.914,4.9198,4.9101,4.9392,4.94,4.9407,4.9463,4.9478,4.949,0,0,0,0,0,4.8667,4.8757,4.8748,4.8769,4.888,4.8968,4.8982,4.899,4.8953,4.8999,4.9024,4.9005,4.918,4.9132,4.9153,4.9214,4.9389,4.9398,4.9406,4.9458,4.9475,4.949,0,0,0,0,0,0,4.8708,4.8764,4.8754,4.8865,4.8912,4.8962,4.9019,4.9008,4.9066,4.9059,4.9066,4.908,4.9182,4.9208,4.9153,4.9332,4.9279,4.9293,4.9311,4.9328,4.9341,4.9332,4.9107,0,0,0,0,0,4.8731,4.8798,4.8843,4.8936,4.8961,4.8986,4.9025,4.9027,4.9076,4.9096,4.9129,4.9177,4.9244,4.9287,4.935,4.9467,4.948,4.952,4.9533,4.9544,4.9556,4.9622,4.9641,4.944,4.944,4.944,0,0,4.8777,4.8816,4.8858,4.8946,4.8983,4.9053,4.9003,4.9078,4.9131,4.9107,4.9204,4.923,4.9285,4.9395,4.9445,4.9419,4.9614,4.9555,4.9563,4.9569,4.9633,4.9652,4.9669,4.9446,4.9445,4.9444,0,0,4.8898,4.8933,4.9016,4.9055,4.9112,4.9128,4.9149,4.9202,4.9218,4.9316,4.93,4.9363,4.9476,4.9517,4.9552,4.9692,4.9676,4.9712,4.9781,4.9845,4.9861,4.9875,4.9927,4.9945,4.9723,4.9724,4.9724,0,4.8948,4.9053,4.906,4.9138,4.9178,4.9161,4.9246,4.9283,4.9358,4.9386,4.9357,4.9501,4.9536,4.9657,4.9691,4.972,4.9744,4.9705,4.9858,4.9873,4.9886,4.9935,4.9954,4.9728,4.9727,4.9727,4.9726,0,4.9113,4.9186,4.9246,4.932,4.9367,4.9447,4.9468,4.9515,4.9514,4.9534,4.9635,4.9678,4.975,4.9779,4.9778,4.99,4.9883,4.9856,4.9803,4.9909,4.9955,4.9974,4.9733,4.9732,4.9731,4.973,0,0,4.9261,4.934,4.9362,4.9396,4.9459,4.9516,4.9597,4.9669,4.971,4.9762,4.9831,4.9929,4.9906,4.9946,4.995,5.0007,5.0117,4.9974,4.9975,5.0,5.0256,5.0276,5.0298,5.0107,5.0111,5.0114,5.0252,0,4.9388,4.9531,4.9541,4.967,4.9739,4.9726,4.9797,4.9843,4.9865,4.9927,4.9951,5.0021,4.9984,5.0009,5.0064,5.0092,5.0169,5.0082,5.0173,5.0176,5.016,5.0321,5.0342,5.047,5.027,5.0273,5.0275,0,4.9555,4.9614,4.975,4.9806,4.9835,4.9899,4.9967,5.0026,5.0079,5.0091,5.0138,5.0135,5.0219,5.0164,5.0282,5.0223,5.0261,5.028,5.0285,5.0294,5.0232,5.0336,5.0511,5.0531,5.0303,5.0301,5.0299,0,4.9651,4.9765,4.9862,4.9891,4.9958,5.0004,5.0034,5.0084,5.0127,5.0187,5.0215,5.0284,5.0321,5.0375,5.0391,5.0349,5.0509,5.0454,5.0522,5.0522,5.0556,5.0554,5.0741,5.058,5.0579,5.0579,5.0579,0,4.9792,4.9877,4.9907,4.9966,5.0061,5.0073,5.0166,5.0194,5.0239,5.0305,5.0297,5.0359,5.0376,5.0441,5.0454,5.0551,5.0567,5.058,5.0583,5.0581,5.058,5.0606,5.0598,5.0584,5.0583,5.0582,5.0581,0,4.9916,4.9939,5.0044,5.01,5.0116,5.0183,5.0231,5.0289,5.0311,5.0394,5.0414,5.0448,5.0525,5.0546,5.0638,5.0647,5.0761,5.0754,5.0743,5.0743,5.081,5.0804,5.1021,5.1051,5.0869,5.0871,5.0872,0,5.0004,5.0069,5.0133,5.0176,5.0209,5.0279,5.0323,5.0338,5.0385,5.0453,5.0503,5.0579,5.0641,5.0764,5.0797,5.0868,5.0864,5.0935,5.0874,5.0872,5.0867,5.0863,5.087,5.0947,5.0949,5.095,5.0952,0,5.016,5.0169,5.0234,5.0304,5.0358,5.0413,5.0466,5.0503,5.0525,5.0579,5.0658,5.0706,5.08,5.0876,5.0948,5.098,5.0971,5.0971,5.099,5.099,5.0981,5.0988,5.0775,5.0966,5.0964,5.0963,5.0962,5.0962,5.027,5.0328,5.0382,5.0455,5.0497,5.0548,5.0606,5.0635,5.0701,5.078,5.0785,5.0871,5.0925,5.1021,5.1057,5.1125,5.1104,5.1132,5.1139,5.1146,5.1152,5.097,5.1138,5.1138,5.1137,5.1137,5.1137,0,5.0426,5.0461,5.0528,5.0604,5.0662,5.0649,5.0708,5.0757,5.0833,5.0885,5.0946,5.1038,5.1112,5.1152,5.1226,5.1273,5.1271,5.1292,5.1289,5.1297,5.1166,5.1143,5.1293,5.1293,5.1293,5.1293,5.1293,5.1293,5.0514,5.0612,5.0628,5.0747,5.0782,5.0866,5.0901,5.0949,5.099,5.1093,5.1155,5.1181,5.1229,5.1307,5.1375,5.1385,5.1413,5.1437,5.1445,5.1322,5.1306,5.1291,5.1268,5.1443,5.1443,5.157,5.1571,5.1572]},{"header":{"parameterUnit":"m.s-1","parameterCategory":1,"la1":30.2991,"la2":30.254,"lo1":-89.0895,"lo2":-89.0444,"dy":0.0017,"dx":0.0017,"nx":28,"ny":28,"refTime":"2024-10-14T03:00:00:Z","depth":0,"parameterNumber":3,"parameterNumberName":"V-component_of_WINDS"},"data":[0,0,0,0,0,0,0,0,0,0,0,0,0,0,0,0,0,0,0,0,0,0,0,0,0,0,0,0,0,0,0,0,0,0,0,0,0,0,0,0,0,0,0,0,0,0,0,0,0,0,0,0,0,0,0,0,0,0,-1.2553,-1.2553,0,-1.2599,-1.2599,-1.26,-1.2662,-1.2663,-1.2664,-1.2665,-1.2711,-1.2712,-1.2712,0,0,0,0,0,0,0,0,0,0,0,0,0,-1.2519,-1.2519,-1.2553,-1.2553,-1.2554,-1.2599,-1.26,-1.26,-1.2662,-1.2663,-1.2665,-1.2666,-1.2711,-1.2712,-1.2712,0,0,0,0,0,0,0,0,0,0,0,0,0,-1.2546,-1.2519,-1.2553,-1.259,-1.2594,-1.2599,-1.26,-1.26,-1.2662,-1.2664,-1.2665,-1.2667,-1.2711,-1.2712,-1.2712,-1.2683,0,0,-1.2713,-1.2713,0,0,0,0,0,0,0,0,-1.2544,-1.2547,-1.2584,-1.2588,-1.2592,-1.2627,-1.2605,-1.2628,-1.2662,-1.2636,-1.2666,-1.2667,-1.2682,-1.2685,-1.269,-1.2685,-1.2687,-1.2713,-1.2713,-1.2714,-1.2714,0,0,0,0,0,0,0,-1.2542,-1.2546,-1.2571,-1.2585,-1.259,-1.2605,-1.2611,-1.2609,-1.265,-1.2639,-1.2643,-1.2648,-1.2684,-1.2689,-1.2691,-1.2688,-1.2713,-1.2714,-1.2714,-1.2714,-1.2663,-1.2662,0,0,0,0,0,0,-1.2535,-1.2544,-1.257,-1.2572,-1.2572,-1.2604,-1.2611,-1.2614,-1.265,-1.2657,-1.2646,-1.2651,-1.2688,-1.2691,-1.2693,-1.2663,-1.2714,-1.2714,-1.2714,-1.2665,-1.2663,-1.2661,0,0,0,0,0,0,-1.2534,-1.2537,-1.2568,-1.2559,-1.2564,-1.2603,-1.2606,-1.2614,-1.2619,-1.2656,-1.2663,-1.2644,-1.2689,-1.2693,-1.2686,-1.2665,-1.2714,-1.2714,-1.2667,-1.2664,-1.2662,-1.26,0,0,0,0,0,0,-1.2533,-1.2536,-1.2525,-1.2559,-1.2565,-1.2559,-1.2605,-1.2614,-1.262,-1.2626,-1.2656,-1.2662,-1.2691,-1.2685,-1.2686,-1.2666,-1.2715,-1.2669,-1.2666,-1.2663,-1.2604,-1.2596,-1.2589,0,0,0,0,0,-1.2531,-1.2505,-1.2524,-1.2527,-1.2552,-1.2557,-1.2561,-1.2595,-1.2618,-1.2607,-1.2631,-1.2661,-1.2667,-1.2683,-1.2685,-1.2666,-1.267,-1.2667,-1.2663,-1.2607,-1.2597,-1.2589,0,0,0,0,0,0,-1.2467,-1.251,-1.2532,-1.2516,-1.2533,-1.2568,-1.2556,-1.2583,-1.2593,-1.2598,-1.264,-1.2646,-1.2634,-1.2649,-1.2666,-1.264,-1.2673,-1.267,-1.263,-1.2621,-1.2614,-1.261,-1.2715,0,0,0,0,0,-1.2451,-1.2452,-1.249,-1.2472,-1.248,-1.2516,-1.252,-1.2545,-1.2564,-1.2571,-1.2594,-1.2611,-1.2618,-1.262,-1.2628,-1.2607,-1.2615,-1.2595,-1.2587,-1.2581,-1.2577,-1.2569,-1.256,-1.265,-1.265,-1.265,0,0,-1.2418,-1.2442,-1.244,-1.246,-1.2476,-1.2476,-1.2522,-1.252,-1.252,-1.257,-1.2565,-1.2583,-1.2605,-1.2591,-1.2587,-1.2604,-1.2554,-1.2576,-1.2571,-1.2571,-1.2564,-1.2555,-1.2548,-1.2647,-1.2648,-1.2648,0,0,-1.2358,-1.2376,-1.2364,-1.2379,-1.2403,-1.2428,-1.2425,-1.2457,-1.2471,-1.2467,-1.2505,-1.2507,-1.2516,-1.253,-1.2539,-1.2486,-1.2514,-1.2488,-1.2447,-1.2439,-1.2431,-1.2425,-1.2407,-1.24,-1.2484,-1.2484,-1.2484,0,-1.2314,-1.2316,-1.2354,-1.235,-1.2358,-1.2405,-1.2393,-1.2406,-1.2431,-1.2435,-1.2455,-1.2469,-1.2487,-1.2477,-1.2465,-1.247,-1.2468,-1.2484,-1.243,-1.2424,-1.2419,-1.2402,-1.2395,-1.2481,-1.2481,-1.2481,-1.2482,0,-1.226,-1.2261,-1.2248,-1.2272,-1.2279,-1.2271,-1.2308,-1.2311,-1.2335,-1.2358,-1.2354,-1.2378,-1.2391,-1.2391,-1.2415,-1.2386,-1.2396,-1.2422,-1.2456,-1.2406,-1.2391,-1.2385,-1.2476,-1.2477,-1.2478,-1.2479,0,0,-1.2159,-1.2206,-1.22,-1.2212,-1.2243,-1.2245,-1.224,-1.2254,-1.2255,-1.2272,-1.2268,-1.2276,-1.2301,-1.2311,-1.2337,-1.2329,-1.2287,-1.2356,-1.2358,-1.2343,-1.2257,-1.2238,-1.2229,-1.2307,-1.2305,-1.2305,-1.2256,0,-1.2105,-1.2099,-1.2133,-1.2118,-1.212,-1.2165,-1.2161,-1.2179,-1.2201,-1.2206,-1.2231,-1.2235,-1.2267,-1.2274,-1.2268,-1.2293,-1.227,-1.2297,-1.2304,-1.2304,-1.2297,-1.2221,-1.22,-1.2152,-1.225,-1.2249,-1.2248,0,-1.204,-1.2054,-1.2038,-1.2072,-1.2074,-1.2069,-1.2086,-1.209,-1.2113,-1.2129,-1.2141,-1.2172,-1.217,-1.2203,-1.2201,-1.2218,-1.2224,-1.2236,-1.2235,-1.2237,-1.2272,-1.2221,-1.2138,-1.2131,-1.2239,-1.224,-1.2241,0,-1.1968,-1.1983,-1.1976,-1.1985,-1.2023,-1.2019,-1.2035,-1.206,-1.2066,-1.2081,-1.2086,-1.21,-1.2107,-1.2118,-1.2152,-1.2173,-1.2146,-1.2182,-1.216,-1.2159,-1.2151,-1.2151,-1.2068,-1.2155,-1.2155,-1.2155,-1.2156,0,-1.1904,-1.1892,-1.1945,-1.194,-1.193,-1.197,-1.1959,-1.1979,-1.2001,-1.2002,-1.2042,-1.2042,-1.2087,-1.2092,-1.2119,-1.2114,-1.2117,-1.213,-1.2137,-1.2126,-1.2125,-1.213,-1.2134,-1.2154,-1.2154,-1.2154,-1.2155,0,-1.1821,-1.1855,-1.1851,-1.1888,-1.1898,-1.1888,-1.192,-1.1918,-1.1943,-1.1944,-1.1947,-1.1986,-1.1994,-1.203,-1.2046,-1.2064,-1.205,-1.2064,-1.2042,-1.2047,-1.2023,-1.2025,-1.194,-1.1932,-1.2024,-1.2023,-1.2022,0,-1.1777,-1.177,-1.1807,-1.1811,-1.1825,-1.183,-1.1838,-1.1878,-1.1884,-1.1911,-1.1905,-1.1917,-1.1929,-1.1941,-1.1971,-1.1984,-1.1999,-1.1968,-1.2001,-1.1991,-1.1999,-1.1998,-1.1998,-1.1961,-1.196,-1.1959,-1.1958,0,-1.1696,-1.1714,-1.1723,-1.1738,-1.1746,-1.1761,-1.1777,-1.1778,-1.1823,-1.1828,-1.1838,-1.1847,-1.1865,-1.1876,-1.1895,-1.1912,-1.1942,-1.1948,-1.1943,-1.1932,-1.1919,-1.1926,-1.2023,-1.1949,-1.195,-1.1951,-1.1951,-1.1951,-1.1631,-1.1627,-1.1653,-1.1663,-1.168,-1.1695,-1.1695,-1.1721,-1.1729,-1.1747,-1.1771,-1.1777,-1.1802,-1.1831,-1.1846,-1.1852,-1.1869,-1.1862,-1.1861,-1.1858,-1.1853,-1.1919,-1.1855,-1.1856,-1.1856,-1.1856,-1.1856,0,-1.1552,-1.1571,-1.158,-1.1602,-1.161,-1.1639,-1.1659,-1.1664,-1.1669,-1.169,-1.1701,-1.1713,-1.1724,-1.1756,-1.1772,-1.177,-1.1785,-1.1773,-1.1773,-1.1777,-1.1837,-1.1839,-1.1761,-1.1761,-1.1761,-1.1761,-1.1761,-1.1761,-1.1512,-1.1507,-1.1528,-1.1533,-1.1552,-1.1559,-1.1569,-1.1583,-1.16,-1.1611,-1.1621,-1.1642,-1.1668,-1.1686,-1.1698,-1.1707,-1.1711,-1.1695,-1.1708,-1.1763,-1.1772,-1.1781,-1.1783,-1.1695,-1.1695,-1.1648,-1.1647,-1.1647]}]]